Temperature
19 19 19 19 19 19 19 19 19 19 19 19 19 19 19 19 19 19 19 19 19 19 19 19 18 18 18 18 18 18 18 18 17 17 17 17 17 17 17 17 17 17 16
19 19 19 19 19 19 19 19 19 19 19 19 19 19 19 19 19 19 19 19 19 19 19 19 19 18 18 18 18 18 18 18 18 17 17 17 17 17 17 17 17 17 16
19 19 19 19 19 19 19 19 19 19 19 19 19 19 19 19 19 19 19 19 19 19 19 19 19 19 18 18 18 18 18 18 18 18 17 17 17 17 17 17 17 17 16
19 19 19 19 19 19 19 19 19 19 19 19 19 19 19 19 19 19 19 19 19 19 19 19 19 19 19 18 18 18 18 18 18 18 18 17 17 17 17 17 17 17 17
19 19 19 19 19 19 19 19 19 19 19 19 19 19 20 19 19 19 19 19 19 19 19 19 18 18 18 18 18 18 18 18 18 18 18 17 17 17 17 17 17 17 17
19 19 19 19 19 19 19 19 19 19 19 19 19 20 20 20 20 20 19 19 19 19 19 18 18 18 18 18 18 18 18 18 18 18 18 17 17 17 17 17 17 17 17
19 19 19 19 19 19 19 19 19 19 19 19 19 19 20 20 20 20 20 19 19 19 19 19 18 18 18 18 18 18 18 18 18 18 18 18 17 17 17 17 17 17 17
19 19 19 19 19 19 19 19 19 19 19 19 19 19 19 20 20 20 20 20 19 19 19 19 19 18 18 18 18 18 18 18 18 18 18 17 17 17 17 17 17 17 17
19 19 19 19 19 19 19 19 19 19 19 19 19 19 19 20 20 20 20 20 20 20 19 19 19 19 18 18 18 18 18 18 18 18 17 17 17 17 17 17 17 17 17
19 19 19 19 19 19 19 19 19 19 19 19 19 19 19 19 19 19 20 20 20 20 19 19 19 19 19 18 18 18 18 18 18 18 17 17 17 17 17 17 17 17 16
19 19 19 19 19 19 19 19 19 19 19 19 19 19 19 19 19 19 19 20 20 20 20 19 19 19 19 18 18 18 18 18 18 18 17 17 17 17 17 17 17 16 16
19 19 19 19 19 19 19 19 19 19 19 19 19 19 19 19 19 19 19 19 19 20 19 19 19 19 19 18 18 18 18 18 18 18 17 17 17 17 17 17 17 16 16
19 19 19 19 19 19 19 19 19 19 19 19 19 19 19 19 19 19 19 19 19 19 19 19 19 19 18 18 18 18 18 18 18 18 17 17 17 17 17 17 17 16 16
19 19 19 19 19 19 18 18 18 18 18 18 18 18 18 18 18 18 18 19 19 19 19 19 19 19 19 18 18 18 18 18 18 17 17 17 17 17 17 17 16 16 16
19 19 19 19 19 19 18 18 18 18 18 18 18 18 18 18 18 18 18 18 18 18 18 19 19 19 18 18 18 18 18 18 17 17 17 17 17 17 17 16 16 16 16
19 19 19 19 18 18 18 18 18 18 18 18 18 18 18 18 18 18 18 18 18 18 18 18 18 18 18 18 18 17 17 17 17 17 17 17 17 17 16 16 16 16 16
19 19 19 18 18 18 18 18 18 18 18 18 18 18 18 18 18 18 18 18 17 17 17 17 18 18 18 18 17 17 17 17 17 17 17 17 17 17 16 16 16 16 16
18 18 18 18 18 18 18 18 18 17 17 17 17 17 17 17 17 17 17 17 17 17 17 17 17 17 17 17 17 17 17 17 17 17 17 17 16 16 16 16 16 16 15
18 18 18 18 18 18 18 17 17 17 17 17 17 17 17 17 17 17 17 17 17 17 17 17 17 17 17 17 17 17 17 16 16 16 16 16 16 16 16 16 16 15 15
18 18 17 17 17 17 17 17 17 17 17 17 17 17 17 17 17 17 17 17 17 17 17 16 16 16 16 17 16 16 16 16 16 16 16 16 16 16 16 15 15 15 15
17 17 17 17 17 17 17 17 17 17 17 17 16 16 16 16 16 16 16 16 16 16 16 16 16 16 16 16 16 16 16 16 16 15 15 15 15 15 15 15 15 15 15
17 17 17 17 16 16 16 16 16 16 16 16 16 16 16 16 16 16 16 16 16 16 16 16 16 16 16 16 16 15 15 15 15 15 15 15 15 15 15 15 15 14 14
17 16 16 16 16 16 16 16 16 16 16 16 16 15 15 15 15 15 16 16 16 16 15 15 15 15 15 15 15 15 15 15 15 15 15 15 15 14 14 14 14 14 14
16 16 16 16 16 15 15 15 15 15 15 15 15 15 15 15 15 15 15 15 15 15 15 15 15 15 15 15 15 15 15 15 14 14 15 14 14 14 14 14 14 14 14
16 16 15 15 15 15 15 15 15 15 15 15 15 15 15 15 15 15 15 15 15 15 15 14 14 15 15 15 15 15 14 14 14 14 14 14 14 14 13 13 13 13 13
15 15 15 15 15 15 15 15 15 14 14 14 14 14 14 14 14 14 14 14 14 14 14 14 14 14 14 14 14 14 14 14 14 13 14 13 13 13 13 13 13 13 13
Wind_Speed
1 1 1 1 1 2 2 1 1 1 2 3 4 3 2 3 3 7 10 14 15 14 13 12 11 11 10 10 9 9 9 8 8 8 8 9 9 9 9 8 8 8 8
1 0 0 0 1 1 1 1 1 2 2 2 2 2 3 3 3 6 10 12 15 15 14 13 13 12 12 11 10 10 10 9 9 9 9 9 9 10 9 9 9 9 9
1 1 1 1 2 3 2 2 3 2 2 2 3 3 3 3 3 4 8 10 12 14 14 14 14 13 13 12 12 11 11 10 10 10 10 9 9 9 9 10 9 8 8
3 3 2 1 2 3 2 1 2 2 1 2 2 3 2 2 3 4 6 8 10 11 14 16 15 14 14 13 12 12 11 11 10 10 10 10 10 9 9 9 9 9 8
5 4 2 1 2 1 2 2 1 1 2 2 3 4 3 2 3 4 4 6 8 10 12 15 17 16 15 15 14 13 12 11 10 10 9 9 9 9 10 9 9 9 9
5 4 3 2 2 1 1 1 2 3 3 3 5 3 3 4 4 3 4 4 6 8 10 12 14 14 16 16 15 14 13 12 11 10 9 9 9 9 9 9 8 8 9
4 2 3 1 2 1 1 2 2 4 3 3 3 4 3 4 4 4 3 2 3 5 8 10 12 12 13 17 17 15 14 13 12 11 11 10 10 9 9 9 8 8 8
4 4 3 3 2 2 2 2 2 3 3 3 2 2 2 2 2 4 3 3 3 2 3 7 10 11 11 11 14 17 15 14 13 12 11 11 11 10 10 9 9 9 9
4 3 3 4 3 3 2 3 2 3 3 3 1 1 2 1 2 2 3 3 3 3 3 3 6 8 10 10 11 15 16 15 14 13 12 12 11 11 11 11 10 10 10
3 3 3 3 3 3 3 3 2 3 3 3 2 1 2 1 2 2 3 2 4 4 3 3 3 6 8 8 9 12 16 16 15 14 13 12 11 10 10 10 10 9 9
3 3 3 3 3 3 2 2 2 2 2 3 3 2 3 2 3 3 3 3 2 2 3 4 3 4 6 8 7 9 15 15 15 14 13 11 10 10 10 9 9 9 9
3 3 4 3 3 3 2 2 3 3 3 4 3 3 3 2 2 3 4 4 3 3 2 2 2 3 4 6 7 9 13 14 14 13 13 12 11 10 10 10 9 9 9
3 3 3 2 2 3 3 3 3 4 3 4 4 4 4 4 3 3 4 4 4 3 1 1 2 2 2 5 7 10 13 14 14 13 12 12 11 11 11 11 10 9 8
2 2 2 2 2 3 4 3 3 4 3 4 5 4 4 4 4 4 3 4 4 3 3 2 1 2 2 3 6 9 9 13 13 12 12 12 11 11 11 10 10 8 7
2 1 1 2 2 3 3 3 3 4 3 3 4 4 4 4 4 4 3 3 3 4 4 3 1 1 2 3 7 7 7 12 13 13 13 12 12 11 11 10 9 9 8
1 0 1 2 2 3 3 4 4 3 3 3 3 3 4 4 4 4 3 3 3 3 4 3 3 1 1 2 5 5 6 11 13 14 14 13 12 12 11 11 10 9 9
1 1 2 2 2 3 3 3 4 4 4 4 4 4 4 5 4 4 4 3 3 3 5 4 3 2 2 1 2 3 4 6 8 13 14 14 13 13 12 12 11 10 10
2 2 2 2 3 3 3 3 4 4 3 3 4 4 4 5 4 4 3 4 4 4 4 5 3 3 3 2 3 4 4 5 5 10 14 14 13 12 12 12 12 11 11
2 2 2 2 2 2 3 3 2 3 3 3 3 4 4 4 5 4 4 4 4 5 3 4 4 3 2 2 3 3 3 2 3 6 10 12 12 12 12 12 12 11 11
2 1 2 2 2 2 2 2 2 2 3 3 3 4 4 4 5 5 5 4 4 4 4 4 4 3 3 3 2 2 2 2 1 3 4 6 10 12 12 12 11 11 11
2 2 2 2 2 2 2 2 3 3 3 4 4 4 4 4 5 5 5 4 4 4 3 3 3 3 3 3 2 2 3 2 2 1 2 3 4 6 8 11 11 11 11
1 1 2 2 3 2 1 2 2 3 4 4 5 5 5 5 5 6 6 6 5 4 4 4 3 3 4 3 2 2 3 2 2 1 1 3 3 4 5 7 11 12 11
1 1 2 2 2 1 1 2 2 3 4 5 5 5 6 6 3 3 4 5 6 7 7 5 5 5 4 4 3 3 4 3 3 2 2 3 3 3 4 6 12 12 12
2 2 2 3 2 2 2 2 3 4 5 5 5 5 4 4 5 4 5 5 4 5 6 5 5 5 5 4 4 5 5 4 3 2 2 2 2 2 3 4 10 13 13
2 3 3 2 2 2 1 2 3 4 4 5 4 4 4 4 4 4 4 5 5 5 6 5 5 6 7 6 4 3 3 2 3 3 2 2 2 2 2 3 7 12 12
3 3 2 2 3 3 2 2 2 3 4 4 4 3 3 3 3 3 4 5 6 5 5 6 5 5 5 5 5 4 3 3 3 3 2 2 2 1 1 2 3 6 7
Wind_Direction
101 117 111 99 239 214 199 243 257 221 227 242 248 241 237 228 207 161 162 176 177 179 183 188 193 197 200 203 204 203 205 208 212 214 218 222 223 225 228 231 234 237 240
82 10 140 7 311 293 253 268 279 265 259 258 256 244 232 234 212 165 163 183 186 186 190 195 199 204 205 207 209 208 209 210 214 218 221 224 225 228 231 234 237 238 240
201 247 214 230 271 273 242 238 264 263 257 254 246 251 237 228 220 174 174 180 184 194 199 202 205 208 210 212 212 212 212 212 216 219 222 226 227 230 234 236 237 237 239
218 247 232 220 246 259 242 245 265 279 280 274 266 256 231 211 217 200 200 189 183 192 201 207 208 209 212 212 212 214 214 216 218 220 224 226 226 228 230 231 235 236 236
217 229 239 235 243 250 270 290 3 316 283 282 273 249 231 213 216 217 206 196 191 188 189 200 207 210 212 212 213 215 217 217 215 219 222 222 223 226 227 230 234 234 230
225 239 229 215 237 243 274 308 311 286 276 268 275 280 246 222 212 209 215 207 197 190 186 193 198 211 214 213 214 215 217 218 217 217 217 219 224 226 225 226 229 229 229
223 229 268 226 231 232 279 290 284 280 273 264 271 284 261 245 217 205 203 217 213 198 194 185 188 200 206 214 216 215 215 215 217 217 218 221 225 226 225 224 226 229 233
234 219 225 253 240 223 240 255 264 282 291 294 291 308 300 269 270 221 187 208 221 204 211 198 188 195 195 192 207 211 211 213 216 218 222 226 228 226 226 224 225 227 231
233 245 205 230 246 236 224 234 248 259 272 286 289 287 311 309 301 251 219 195 201 202 215 210 194 193 195 188 194 204 208 212 217 220 223 227 228 230 227 226 225 227 229
223 227 230 230 245 250 241 248 216 252 254 272 276 260 255 283 298 313 296 233 209 195 199 230 203 183 188 187 186 190 200 207 214 218 220 221 223 223 227 228 227 227 231
222 229 217 224 233 249 252 274 289 280 275 275 277 280 276 259 246 252 285 304 297 232 204 205 203 186 184 184 184 185 191 200 209 213 214 217 221 221 225 229 230 229 231
220 227 218 214 228 244 250 254 257 260 263 281 290 289 278 272 267 258 275 282 275 269 241 209 196 184 175 169 177 182 187 193 200 204 209 214 221 224 227 230 232 233 233
221 229 232 197 231 245 247 252 247 258 256 261 267 272 279 274 275 267 274 283 286 280 256 227 195 157 188 159 164 184 191 192 196 199 204 212 218 221 226 228 228 229 234
242 205 218 207 232 255 255 243 251 252 244 247 260 268 281 285 287 280 274 286 295 303 296 265 219 154 154 154 163 183 194 192 195 199 203 208 211 216 221 223 222 221 228
256 198 209 225 226 243 259 263 261 268 266 256 268 269 266 276 283 279 277 280 278 285 290 281 284 202 147 124 159 188 188 193 198 201 203 205 207 209 213 215 216 215 218
286 297 240 236 237 237 243 248 257 263 262 261 266 280 280 281 286 289 290 286 279 280 286 291 274 263 225 205 181 195 200 195 201 205 206 204 204 208 210 209 208 209 210
275 261 267 262 257 258 256 254 258 263 263 269 276 274 275 276 286 298 301 297 285 277 276 285 285 264 276 233 182 218 204 196 205 208 204 202 204 207 208 209 208 208 208
260 264 262 267 275 280 279 271 273 278 271 271 275 279 279 279 281 279 291 295 290 277 270 273 279 271 262 238 209 224 226 216 210 207 202 200 203 205 206 205 206 207 207
255 273 277 265 272 284 283 279 275 292 298 290 287 286 289 291 292 291 284 284 284 288 284 281 283 282 271 259 229 238 250 246 231 198 195 200 204 205 205 200 201 203 204
232 243 264 265 265 271 277 284 282 274 282 295 295 290 292 289 290 290 287 283 281 287 286 278 275 279 281 273 242 246 266 266 255 202 185 191 204 208 208 203 202 201 200
226 224 251 266 266 255 270 292 288 291 297 291 289 284 283 280 278 279 284 290 294 288 283 278 276 275 281 289 272 256 264 268 262 179 165 191 192 199 205 207 203 198 199
268 248 251 264 277 287 346 23 335 321 311 301 298 297 288 268 272 265 267 276 276 279 284 281 276 278 277 274 273 273 260 263 267 220 208 229 202 202 202 192 192 195 200
252 265 284 280 282 290 305 326 329 299 294 293 294 295 297 308 308 296 283 271 263 255 249 255 269 273 278 281 273 264 257 251 259 251 239 245 222 214 203 188 182 189 197
249 261 261 267 281 288 282 295 304 281 282 284 287 286 285 298 313 315 299 293 283 272 260 249 255 261 266 271 264 255 251 241 242 241 216 250 246 228 207 185 189 191 198
252 257 261 269 277 281 255 284 291 281 285 294 298 311 306 297 318 318 301 300 300 298 294 281 261 260 260 263 264 262 253 239 259 253 230 231 241 238 210 193 196 196 200
271 272 272 263 267 273 260 255 253 279 291 296 290 282 290 286 298 303 293 296 294 296 305 306 292 273 260 257 248 230 232 244 259 259 235 228 245 241 240 221 189 192 203
Height
1558 1559 1559 1559 1560 1560 1560 1560 1560 1560 1560 1560 1561 1561 1561 1561 1561 1561 1561 1561 1561 1562 1562 1562 1563 1563 1564 1564 1565 1565 1566 1567 1567 1568 1568 1569 1570 1570 1571 1571 1572 1572 1573
1558 1558 1559 1559 1559 1560 1560 1560 1560 1560 1560 1560 1560 1560 1560 1560 1560 1560 1560 1560 1560 1561 1561 1561 1562 1562 1563 1563 1564 1564 1565 1565 1566 1566 1567 1567 1568 1569 1569 1570 1570 1571 1571
1558 1558 1559 1559 1559 1559 1559 1559 1559 1560 1559 1559 1559 1559 1559 1559 1559 1559 1559 1559 1559 1559 1560 1560 1560 1561 1561 1562 1562 1563 1563 1563 1564 1564 1565 1565 1566 1567 1567 1568 1568 1569 1569
1557 1557 1558 1558 1559 1559 1559 1559 1559 1559 1559 1559 1558 1558 1558 1558 1558 1558 1557 1557 1557 1558 1558 1558 1559 1559 1559 1560 1560 1561 1561 1562 1562 1562 1563 1563 1564 1565 1565 1566 1566 1567 1567
1556 1557 1557 1557 1558 1558 1558 1558 1558 1558 1558 1557 1557 1557 1557 1557 1556 1556 1556 1557 1556 1556 1556 1556 1557 1557 1558 1558 1559 1559 1559 1560 1560 1561 1561 1561 1562 1562 1563 1563 1564 1564 1564
1555 1556 1556 1556 1557 1557 1557 1557 1557 1557 1557 1557 1556 1556 1556 1556 1555 1555 1555 1555 1555 1555 1554 1554 1555 1555 1556 1556 1557 1557 1557 1558 1558 1558 1559 1559 1559 1560 1560 1561 1561 1562 1562
1555 1555 1555 1555 1556 1556 1556 1556 1556 1556 1556 1556 1556 1555 1554 1554 1554 1554 1553 1553 1554 1553 1553 1553 1553 1553 1553 1554 1554 1555 1555 1555 1555 1556 1556 1557 1557 1557 1558 1558 1558 1559 1559
1554 1554 1553 1554 1554 1555 1555 1555 1555 1555 1555 1555 1555 1554 1554 1554 1553 1552 1552 1552 1552 1552 1552 1552 1552 1551 1551 1551 1552 1552 1553 1553 1553 1553 1554 1554 1555 1555 1555 1555 1556 1556 1556
1552 1552 1552 1552 1553 1553 1554 1554 1553 1553 1553 1553 1554 1554 1553 1552 1551 1551 1551 1550 1550 1550 1550 1550 1550 1550 1550 1550 1549 1550 1550 1550 1551 1551 1551 1551 1552 1552 1552 1553 1553 1553 1553
1550 1550 1551 1551 1551 1552 1552 1552 1552 1552 1552 1552 1552 1552 1552 1551 1551 1550 1550 1549 1549 1548 1548 1548 1548 1548 1548 1548 1547 1547 1547 1548 1548 1548 1548 1548 1549 1549 1549 1550 1550 1550 1550
1549 1549 1549 1549 1549 1550 1550 1550 1550 1550 1550 1550 1550 1550 1550 1550 1550 1550 1548 1547 1547 1546 1546 1545 1545 1545 1545 1545 1545 1545 1545 1545 1545 1545 1545 1546 1546 1546 1546 1546 1547 1547 1547
1547 1547 1547 1546 1547 1548 1548 1548 1548 1548 1548 1548 1548 1548 1548 1548 1547 1547 1546 1545 1544 1544 1543 1542 1542 1542 1543 1543 1542 1542 1543 1543 1543 1542 1542 1542 1543 1543 1543 1543 1544 1544 1544
1545 1545 1545 1544 1545 1545 1546 1546 1546 1546 1546 1545 1545 1545 1545 1545 1545 1545 1544 1543 1542 1541 1540 1540 1540 1539 1539 1540 1539 1539 1540 1540 1539 1539 1539 1539 1540 1540 1540 1540 1541 1541 1541
1543 1543 1543 1543 1543 1543 1544 1544 1543 1543 1543 1543 1543 1543 1542 1543 1542 1542 1542 1541 1539 1538 1538 1537 1537 1536 1536 1536 1536 1536 1536 1536 1536 1536 1536 1536 1536 1536 1537 1537 1537 1538 1538
1541 1541 1540 1540 1540 1541 1541 1541 1541 1541 1541 1540 1540 1540 1540 1540 1539 1539 1539 1539 1539 1537 1535 1535 1535 1534 1533 1533 1533 1533 1533 1533 1533 1533 1533 1532 1532 1533 1533 1534 1534 1534 1534
1538 1538 1538 1538 1538 1538 1538 1538 1538 1539 1538 1538 1538 1538 1537 1537 1536 1536 1536 1536 1536 1535 1533 1532 1531 1531 1531 1530 1529 1529 1529 1529 1529 1529 1529 1529 1529 1529 1529 1530 1530 1531 1531
1535 1535 1535 1535 1535 1535 1535 1536 1536 1536 1536 1535 1535 1535 1534 1534 1533 1533 1533 1532 1532 1532 1530 1529 1528 1528 1528 1527 1527 1527 1526 1526 1525 1525 1525 1525 1525 1525 1526 1526 1526 1527 1527
1532 1533 1533 1532 1532 1533 1533 1533 1533 1533 1533 1533 1532 1532 1531 1531 1530 1529 1529 1529 1528 1528 1527 1526 1525 1525 1525 1524 1523 1523 1523 1522 1522 1522 1522 1522 1522 1522 1522 1522 1523 1523 1523
1529 1530 1530 1530 1530 1530 1530 1530 1530 1530 1530 1529 1529 1528 1528 1527 1527 1526 1526 1525 1525 1524 1524 1523 1522 1522 1522 1521 1521 1520 1520 1519 1519 1519 1518 1518 1518 1518 1518 1519 1519 1519 1519
1527 1527 1527 1527 1527 1527 1527 1527 1527 1526 1526 1526 1526 1525 1525 1524 1523 1523 1522 1522 1521 1521 1520 1520 1519 1519 1518 1518 1517 1516 1516 1516 1516 1515 1515 1515 1515 1515 1515 1515 1515 1516 1516
1524 1524 1524 1524 1525 1524 1524 1524 1524 1523 1523 1523 1522 1522 1521 1521 1520 1520 1519 1518 1518 1517 1517 1516 1516 1515 1514 1514 1513 1513 1513 1512 1512 1512 1511 1511 1511 1511 1511 1512 1512 1512 1512
1522 1522 1521 1522 1522 1522 1522 1521 1521 1520 1520 1519 1518 1518 1518 1517 1517 1516 1516 1515 1515 1514 1513 1513 1512 1511 1510 1510 1510 1510 1509 1509 1508 1509 1508 1508 1508 1507 1508 1508 1509 1509 1509
1519 1518 1518 1518 1518 1519 1518 1518 1517 1517 1516 1515 1515 1514 1514 1514 1513 1512 1511 1511 1510 1510 1510 1509 1508 1507 1507 1507 1507 1506 1506 1505 1505 1505 1505 1504 1505 1505 1505 1504 1505 1506 1506
1516 1516 1516 1516 1515 1515 1515 1515 1514 1514 1513 1512 1511 1510 1510 1509 1509 1508 1507 1507 1506 1505 1505 1504 1504 1503 1503 1503 1503 1503 1503 1502 1501 1501 1501 1501 1500 1501 1501 1501 1501 1502 1503
1513 1513 1513 1513 1513 1512 1512 1511 1511 1510 1509 1508 1507 1506 1506 1505 1505 1504 1503 1502 1502 1501 1501 1501 1500 1499 1499 1499 1499 1499 1498 1498 1497 1497 1497 1497 1496 1497 1497 1497 1498 1498 1499
1510 1510 1510 1509 1509 1509 1508 1508 1507 1506 1505 1504 1504 1503 1502 1501 1500 1500 1499 1498 1497 1496 1496 1496 1496 1495 1494 1494 1494 1494 1494 1494 1493 1493 1493 1494 1493 1493 1493 1493 1494 1494 1495